Temperature
16 15 14 14 14 13 13 12 12 12 12 12 12 12 11 11 10 10 10 10 9 9 9 9 8 8 8 8 8 7 7 6 6 6 6 5 5 4 4 3 3 3 3
16 15 14 14 13 13 12 12 12 12 12 12 12 11 11 11 10 10 10 10 9 9 9 9 8 8 8 8 7 7 6 6 5 5 5 5 4 4 3 3 3 2 2
15 15 14 14 13 13 12 12 12 12 12 11 11 11 11 10 10 10 10 9 9 9 9 8 8 8 8 7 7 6 6 6 5 4 4 4 4 3 3 2 2 2 1
15 15 14 14 13 13 12 12 12 12 11 11 11 11 11 10 10 10 9 9 9 8 8 8 8 7 7 7 6 6 6 5 5 4 4 4 3 3 2 2 1 1 1
15 15 14 14 13 13 12 12 12 12 11 11 11 11 10 10 10 9 9 9 8 8 8 8 7 7 7 7 6 6 5 5 4 4 3 3 3 2 1 1 0 0 -0
15 14 14 13 13 13 12 12 12 12 11 11 11 10 10 10 9 9 9 9 8 8 8 7 7 7 6 6 6 5 5 4 4 3 3 2 2 1 1 -0 -1 -1 -1
14 14 14 13 13 13 12 12 12 12 11 11 10 10 9 9 9 9 8 8 8 8 7 7 7 6 6 6 5 5 4 4 3 3 2 2 1 0 -0 -1 -1 -2 -2
14 14 13 13 13 13 12 12 12 11 11 10 10 9 9 9 9 8 8 8 7 7 7 7 6 6 5 5 5 4 4 3 3 2 1 1 0 -0 -1 -1 -2 -2 -2
13 14 13 13 13 12 12 12 11 11 10 10 9 9 9 8 8 8 8 7 7 7 6 6 6 5 5 4 4 4 3 3 2 1 1 0 -0 -1 -1 -2 -2 -3 -3
13 13 13 13 13 12 12 12 11 10 10 9 9 8 8 8 7 7 7 7 6 6 6 5 5 5 4 4 3 3 2 2 2 1 1 -0 -1 -1 -2 -2 -3 -4 -4
13 13 12 12 12 12 12 11 10 10 9 9 8 8 7 7 7 7 6 6 6 6 5 5 5 4 4 3 3 2 2 1 1 0 -0 -1 -1 -2 -2 -3 -4 -4 -5
12 12 12 12 12 11 11 11 10 9 9 8 8 7 7 7 7 6 6 6 5 5 5 4 4 3 3 2 2 1 1 0 -0 -1 -1 -2 -2 -3 -3 -4 -4 -5 -5
12 11 12 11 11 11 10 10 9 9 8 8 7 7 7 7 6 6 6 5 5 4 4 3 3 3 2 2 1 1 0 -0 -1 -1 -2 -2 -3 -3 -4 -4 -4 -5 -5
11 11 11 11 10 10 10 9 9 9 9 8 7 7 6 6 6 5 5 5 4 4 3 3 2 2 2 1 1 0 -0 -1 -2 -2 -3 -3 -4 -4 -4 -5 -5 -5 -5
10 10 10 10 10 9 9 9 9 9 9 9 8 7 7 6 6 5 5 4 4 3 3 2 2 1 1 1 -0 -1 -1 -2 -2 -3 -3 -4 -4 -4 -5 -5 -6 -6 -6
10 10 10 9 9 9 8 8 7 8 7 7 7 7 6 6 5 5 4 4 3 2 2 2 1 1 0 -0 -1 -1 -2 -2 -3 -3 -4 -4 -5 -5 -5 -6 -6 -7 -7
10 10 9 9 9 9 8 8 7 6 6 6 6 6 5 5 5 4 4 3 2 2 2 1 1 0 -1 -1 -1 -2 -2 -3 -3 -4 -4 -5 -5 -6 -6 -6 -7 -7 -7
9 9 9 9 9 8 8 8 7 7 6 5 5 5 4 4 4 3 3 3 2 1 1 1 -0 -1 -1 -2 -2 -2 -3 -3 -4 -4 -5 -5 -6 -6 -6 -7 -7 -8 -8
8 8 8 8 8 8 7 7 7 6 6 6 5 4 3 3 3 3 2 2 2 1 1 0 -1 -1 -1 -2 -2 -3 -3 -4 -4 -4 -5 -5 -6 -6 -7 -7 -8 -8 -8
8 8 8 7 7 7 6 6 6 6 5 5 5 4 3 3 2 2 2 2 1 1 0 -0 -1 -1 -2 -2 -3 -3 -4 -4 -4 -5 -5 -6 -6 -7 -7 -8 -8 -8 -8
7 6 6 6 6 6 6 6 6 5 5 5 4 4 3 3 3 2 2 1 1 0 -0 -1 -1 -2 -2 -3 -3 -3 -4 -4 -5 -5 -6 -6 -7 -7 -7 -8 -8 -8 -9
6 6 6 6 6 6 6 6 5 5 5 4 3 3 2 2 2 1 1 1 0 -0 -1 -1 -2 -2 -3 -3 -4 -4 -4 -5 -5 -6 -6 -7 -7 -7 -8 -8 -8 -9 -9
5 5 5 5 5 5 5 5 4 4 4 3 3 2 2 1 1 1 1 0 -0 -1 -1 -2 -2 -3 -3 -4 -4 -4 -5 -5 -6 -6 -6 -7 -7 -8 -8 -8 -9 -9 -9
5 5 5 5 5 4 4 4 4 3 3 3 2 2 1 1 1 0 -0 -1 -1 -1 -2 -2 -3 -3 -4 -4 -4 -5 -5 -5 -6 -6 -7 -7 -7 -8 -8 -9 -9 -9 -9
4 4 4 4 4 4 3 3 3 3 2 2 2 1 1 0 0 -0 -1 -1 -2 -2 -2 -3 -3 -4 -4 -4 -5 -5 -5 -6 -6 -7 -7 -7 -8 -8 -9 -9 -9 -9 -9
4 4 4 3 3 3 3 3 2 2 2 1 1 1 0 -0 -1 -1 -1 -2 -2 -2 -3 -3 -4 -4 -4 -5 -5 -6 -6 -6 -7 -7 -7 -8 -8 -8 -9 -9 -9 -9 -9
Wind_Speed
16 15 14 14 14 13 12 12 11 11 12 13 13 12 12 11 11 10 10 9 9 8 7 7 7 6 5 4 4 4 4 4 6 4 3 2 2 3 4 6 9 9 11
15 14 14 13 13 13 12 12 11 11 11 11 11 11 11 11 10 11 10 10 10 9 8 8 7 6 6 5 4 5 4 4 4 6 4 3 3 4 3 4 6 8 9
13 14 14 14 13 13 12 11 11 11 10 10 11 11 11 10 10 10 9 9 9 9 8 8 7 7 6 4 5 4 4 3 3 4 5 3 2 3 3 4 5 5 9
13 13 14 14 14 13 12 11 11 10 10 10 10 10 10 9 9 9 8 8 7 7 7 7 7 7 7 6 5 4 3 3 3 4 4 3 3 3 2 4 5 4 6
12 12 13 12 12 11 11 11 10 10 10 10 9 9 9 8 8 9 8 8 7 6 6 5 6 6 6 5 4 4 3 3 3 3 4 3 3 3 3 3 5 5 5
11 11 11 11 12 12 11 11 10 10 10 9 9 9 9 7 10 12 9 7 7 7 6 5 4 5 5 6 6 5 5 4 4 3 4 4 5 4 3 4 4 5 5
10 11 11 12 12 12 11 11 11 11 10 9 9 9 8 9 12 13 11 7 6 6 6 6 4 4 5 4 4 4 4 5 5 4 4 5 4 3 3 4 4 5 6
10 11 11 12 12 11 12 12 11 9 10 9 9 9 8 9 13 13 12 7 6 5 6 6 6 5 4 4 3 2 2 3 3 3 4 4 3 3 3 3 4 5 5
11 11 12 12 12 12 12 11 9 9 9 8 9 9 8 8 12 13 12 6 5 5 5 5 5 5 5 5 3 3 2 2 3 4 4 3 4 5 4 2 3 5 6
11 11 11 12 13 13 12 11 9 9 9 8 8 8 8 8 11 13 12 6 6 5 4 4 5 5 5 5 3 3 3 3 2 2 2 3 3 3 5 2 2 3 5
9 9 10 11 11 11 10 9 10 10 9 9 8 7 7 8 11 13 12 6 6 6 5 4 3 5 5 4 3 3 3 1 1 0 1 2 2 2 2 2 2 2 3
10 10 10 10 10 10 11 10 10 11 10 9 8 7 5 6 8 10 11 8 7 6 5 4 4 6 5 4 2 1 1 1 1 1 1 1 2 2 2 2 3 3 4
11 10 10 10 9 10 12 12 11 10 9 9 8 7 6 5 6 10 11 9 8 5 4 6 6 6 4 3 1 1 1 1 1 0 1 2 2 2 2 2 3 4 6
11 11 10 11 10 9 8 9 10 10 10 9 8 8 7 6 6 6 6 6 7 6 5 6 6 5 3 2 1 1 1 1 0 1 1 2 2 2 2 2 2 3 4
11 11 11 10 10 9 7 6 7 7 10 10 9 9 10 8 8 10 8 6 6 6 6 4 3 2 2 1 1 1 1 1 1 1 1 2 2 2 3 3 2 3 3
11 11 10 9 9 9 9 7 8 7 10 10 10 9 6 9 13 13 11 10 10 10 6 4 3 3 2 2 1 0 0 0 0 1 1 1 2 2 3 3 3 3 4
12 11 10 10 10 10 10 10 9 8 10 11 12 13 12 14 14 13 12 11 11 9 4 3 3 3 2 2 2 1 1 0 0 0 1 1 2 2 3 3 4 4 4
10 11 11 10 10 10 10 9 9 10 8 6 8 12 14 15 14 14 13 10 6 4 3 4 3 3 3 2 2 1 1 0 0 0 1 1 1 2 2 3 3 4 4
10 9 9 9 9 9 9 9 9 9 9 8 7 8 12 13 13 12 11 5 5 4 3 3 3 3 3 2 2 2 1 1 1 1 1 1 1 2 2 3 3 6 5
8 12 11 10 10 9 9 10 9 9 9 9 8 8 7 7 6 6 5 4 5 4 4 4 3 3 3 3 2 2 2 1 1 1 1 1 1 1 2 3 3 3 4
9 11 13 10 9 9 9 10 10 9 9 8 7 8 11 7 7 6 5 5 4 5 4 4 4 4 3 3 3 2 2 2 1 1 1 1 1 2 2 2 3 3 3
9 9 9 9 9 9 9 9 9 9 9 9 7 8 11 6 5 5 5 4 4 4 4 4 4 3 3 4 3 3 2 2 2 1 1 1 1 2 2 2 2 3 3
9 10 9 9 8 11 10 9 9 9 9 9 8 7 7 6 5 5 5 4 4 4 4 4 4 3 3 3 3 3 3 3 2 2 2 1 1 2 2 2 2 3 3
10 10 11 10 9 9 9 9 8 9 9 9 8 7 6 6 5 5 5 4 4 4 4 4 4 5 5 3 2 2 2 2 2 2 2 2 2 2 1 2 2 2 2
9 10 10 10 10 9 9 9 9 8 8 8 7 7 6 6 5 5 4 4 4 4 4 4 4 4 5 4 3 2 3 3 3 2 2 2 2 2 2 2 2 2 2
9 9 9 9 9 9 9 9 8 8 8 7 7 7 6 6 6 5 5 4 4 4 4 3 4 4 4 4 4 4 4 4 4 3 2 2 2 2 1 1 2 2 1
Wind_Direction
188 188 188 190 189 189 190 189 185 182 182 183 185 187 189 191 189 189 192 189 194 195 191 197 204 197 201 205 204 211 217 214 247 267 260 263 259 268 283 282 283 285 290
185 183 185 184 183 187 189 186 182 181 181 180 179 182 187 188 188 190 191 189 191 193 194 195 204 197 201 201 204 214 220 215 228 263 275 272 265 269 267 278 288 289 291
177 179 179 181 182 185 184 181 179 178 176 175 175 180 184 186 186 189 189 189 192 194 193 196 200 192 205 206 205 212 220 230 232 253 271 271 274 290 294 292 294 295 300
171 174 178 181 182 180 178 177 178 175 173 172 174 176 178 179 182 183 182 183 186 188 190 192 192 193 203 200 204 213 219 231 242 254 266 276 280 291 299 295 302 296 299
169 173 177 175 171 170 171 172 172 171 170 167 167 170 172 174 178 175 177 177 179 182 183 184 185 187 193 193 198 205 206 221 241 254 265 280 283 299 290 290 297 301 296
169 173 169 166 166 167 168 166 164 165 165 164 168 169 170 171 166 166 168 172 173 176 178 178 179 181 190 200 210 211 207 212 226 239 257 267 272 274 287 299 302 314 308
168 168 166 165 166 165 162 162 166 167 163 164 167 166 167 165 160 163 166 166 169 176 176 173 172 181 181 193 210 220 227 236 234 232 248 257 267 272 281 284 290 294 288
166 167 166 165 164 160 160 165 165 161 163 165 165 164 161 161 160 162 162 163 162 170 172 169 173 180 182 178 179 207 236 244 246 239 236 248 260 268 256 272 285 297 290
170 171 169 165 162 161 164 164 158 155 157 158 160 160 160 159 160 160 156 160 160 164 162 162 168 173 178 174 176 204 242 276 290 281 286 299 312 321 336 347 331 323 311
174 171 166 163 163 164 163 156 149 149 150 149 151 157 157 156 158 159 158 161 162 160 154 156 162 167 170 169 177 188 221 255 285 321 325 325 334 335 336 336 306 309 312
163 161 160 160 161 158 151 147 146 144 144 147 145 144 149 151 157 161 163 165 166 163 164 167 171 167 165 169 174 188 226 239 196 299 326 327 335 337 334 329 316 295 295
153 154 155 155 152 150 147 147 148 148 148 148 143 139 139 145 149 159 161 157 152 158 166 163 157 155 157 166 180 228 342 47 83 50 350 321 319 315 313 314 316 310 293
151 153 152 148 147 149 151 152 152 154 155 155 155 155 151 143 148 151 156 152 143 142 141 141 142 146 149 160 158 128 90 89 94 47 307 300 302 306 326 332 330 325 310
155 154 150 149 147 147 150 155 158 162 161 159 161 161 153 148 150 153 156 149 138 132 128 131 131 134 133 134 126 136 126 142 140 227 293 318 342 347 336 330 324 325 318
156 153 150 150 148 146 142 148 156 164 167 164 168 165 164 169 170 160 157 158 154 146 134 122 123 135 141 138 115 104 85 68 24 10 358 346 341 338 327 328 320 319 314
158 156 154 152 149 145 137 115 95 120 132 138 143 146 150 151 149 151 149 145 143 143 133 144 157 162 169 168 156 109 46 57 47 19 359 337 331 328 322 324 325 318 314
163 160 156 154 153 152 150 145 134 104 104 120 131 137 140 143 144 146 144 142 145 144 138 155 166 175 174 167 166 170 194 304 97 23 320 316 324 323 323 322 323 322 318
160 158 156 157 155 156 156 153 149 146 140 124 125 135 138 140 142 145 144 136 145 150 154 165 172 174 174 172 174 175 179 178 193 246 283 294 303 312 317 317 315 315 317
158 157 153 151 151 151 148 146 144 143 141 137 129 132 138 139 141 147 146 147 160 166 163 163 165 167 170 166 167 174 184 201 210 237 272 285 281 298 306 308 310 319 322
155 150 150 150 149 149 148 147 146 146 146 149 152 150 145 139 147 158 159 155 161 165 164 166 167 167 169 169 172 176 182 204 215 237 260 270 274 284 293 298 306 313 311
149 149 146 146 150 152 151 150 150 149 151 152 154 158 159 158 163 166 168 166 168 167 166 166 168 170 170 169 171 176 185 207 221 229 247 265 274 290 292 293 301 305 311
148 148 149 148 146 147 146 145 146 147 149 147 146 152 156 149 156 161 164 165 162 161 161 162 169 172 173 175 173 175 188 205 219 220 236 255 271 281 287 292 302 311 318
141 141 139 140 140 142 140 142 144 146 147 148 149 151 155 157 158 158 159 157 153 152 148 149 158 162 151 151 157 169 186 204 209 200 208 234 260 273 285 290 293 306 316
142 143 142 142 141 143 144 144 145 144 145 146 149 153 155 155 153 151 150 147 146 144 145 149 155 161 159 152 155 172 194 205 197 197 198 209 240 260 274 285 291 300 307
139 140 141 143 143 143 143 142 142 142 143 146 149 150 149 147 146 146 146 147 147 148 149 149 153 160 166 173 181 195 207 211 215 208 199 206 215 233 255 270 282 293 298
133 133 135 137 139 141 143 144 143 143 144 146 148 149 150 150 149 148 147 147 147 149 150 153 160 163 169 179 189 201 216 222 224 223 199 180 193 215 230 251 265 274 285
Height
1422 1428 1433 1438 1443 1448 1452 1456 1460 1464 1467 1471 1474 1478 1481 1484 1487 1490 1493 1495 1497 1499 1501 1503 1503 1504 1505 1505 1505 1505 1504 1503 1501 1499 1498 1497 1495 1493 1491 1489 1486 1483 1481
1416 1422 1427 1432 1437 1442 1446 1451 1455 1459 1463 1466 1469 1473 1476 1479 1482 1485 1487 1490 1492 1494 1496 1497 1498 1499 1499 1500 1500 1499 1499 1498 1496 1493 1492 1491 1489 1488 1485 1483 1480 1477 1475
1411 1417 1422 1427 1431 1436 1441 1446 1450 1454 1458 1461 1464 1467 1470 1474 1476 1479 1482 1484 1486 1488 1490 1491 1492 1493 1494 1494 1494 1494 1493 1492 1491 1489 1487 1486 1484 1482 1479 1477 1474 1472 1469
1406 1411 1416 1421 1426 1431 1436 1440 1445 1449 1452 1456 1459 1462 1465 1468 1471 1474 1477 1479 1481 1483 1485 1486 1487 1488 1488 1488 1488 1488 1488 1487 1486 1484 1482 1480 1479 1476 1474 1471 1467 1466 1463
1401 1406 1411 1416 1421 1426 1431 1435 1440 1444 1448 1451 1455 1457 1461 1463 1466 1469 1471 1474 1476 1478 1479 1481 1482 1482 1483 1483 1483 1483 1483 1482 1481 1479 1477 1475 1473 1471 1469 1466 1462 1459 1456
1396 1401 1406 1411 1417 1421 1426 1431 1435 1439 1443 1446 1449 1453 1455 1458 1461 1464 1466 1469 1471 1473 1474 1476 1477 1478 1478 1478 1479 1478 1478 1477 1476 1474 1472 1470 1468 1466 1464 1462 1458 1454 1450
1392 1397 1402 1407 1411 1416 1421 1426 1430 1434 1438 1441 1445 1448 1451 1453 1457 1459 1462 1464 1466 1468 1469 1471 1472 1473 1473 1474 1474 1474 1473 1472 1472 1471 1468 1466 1464 1462 1460 1457 1454 1451 1448
1388 1393 1397 1402 1407 1412 1417 1421 1425 1429 1433 1436 1440 1443 1446 1449 1452 1455 1457 1460 1462 1463 1465 1466 1467 1468 1468 1469 1469 1469 1468 1468 1467 1465 1464 1462 1461 1459 1456 1454 1450 1447 1444
1384 1388 1393 1397 1402 1407 1411 1416 1420 1424 1428 1432 1435 1439 1442 1445 1448 1451 1453 1455 1457 1459 1461 1462 1463 1464 1464 1465 1465 1464 1464 1463 1462 1461 1460 1458 1457 1455 1452 1450 1446 1442 1438
1380 1384 1389 1394 1398 1402 1407 1411 1416 1420 1424 1428 1431 1435 1438 1441 1443 1446 1449 1451 1453 1455 1456 1458 1459 1459 1460 1460 1460 1459 1459 1458 1458 1456 1455 1454 1452 1450 1448 1446 1443 1439 1435
1377 1381 1385 1390 1394 1399 1403 1407 1412 1416 1420 1424 1428 1431 1434 1437 1439 1442 1445 1446 1448 1450 1452 1453 1454 1455 1456 1456 1456 1456 1455 1454 1453 1452 1451 1449 1448 1446 1444 1442 1440 1437 1434
1374 1378 1382 1386 1391 1395 1399 1403 1408 1412 1416 1420 1423 1427 1430 1433 1436 1438 1440 1443 1445 1446 1448 1449 1450 1451 1452 1452 1452 1452 1451 1450 1449 1448 1447 1445 1444 1442 1440 1438 1436 1434 1431
1369 1373 1378 1382 1387 1391 1395 1399 1403 1408 1411 1415 1419 1422 1426 1429 1431 1434 1437 1439 1441 1443 1445 1446 1447 1448 1448 1448 1448 1448 1447 1446 1445 1444 1443 1442 1440 1439 1437 1435 1432 1430 1427
1365 1369 1374 1378 1383 1387 1392 1396 1399 1403 1406 1410 1414 1418 1421 1424 1427 1430 1433 1435 1437 1439 1441 1442 1444 1444 1445 1444 1444 1444 1443 1442 1442 1441 1439 1438 1437 1435 1433 1431 1428 1425 1423
1361 1365 1370 1374 1378 1383 1387 1392 1396 1400 1403 1407 1410 1414 1417 1420 1423 1426 1429 1431 1433 1436 1438 1439 1440 1440 1440 1440 1440 1440 1440 1439 1438 1438 1436 1435 1433 1432 1430 1428 1425 1423 1420
1356 1360 1365 1369 1374 1378 1382 1388 1393 1397 1401 1405 1409 1412 1414 1418 1421 1423 1426 1428 1430 1433 1434 1435 1435 1436 1436 1436 1436 1436 1436 1436 1435 1434 1433 1432 1430 1429 1427 1425 1423 1420 1418
1351 1356 1360 1365 1369 1374 1378 1383 1387 1393 1398 1402 1405 1408 1412 1415 1417 1420 1423 1425 1427 1429 1430 1431 1431 1432 1433 1433 1433 1433 1433 1433 1432 1431 1430 1429 1428 1426 1424 1422 1420 1418 1416
1348 1352 1356 1360 1365 1370 1375 1380 1384 1388 1392 1397 1401 1405 1408 1411 1415 1417 1420 1422 1423 1425 1426 1427 1428 1429 1429 1430 1430 1430 1430 1430 1429 1428 1427 1426 1425 1424 1422 1420 1418 1416 1414
1344 1348 1352 1357 1362 1367 1372 1377 1381 1386 1389 1393 1397 1401 1405 1408 1411 1414 1416 1418 1419 1420 1422 1423 1424 1425 1426 1426 1427 1427 1427 1426 1426 1425 1424 1423 1422 1421 1419 1418 1416 1414 1412
1340 1344 1349 1353 1358 1363 1368 1373 1378 1382 1386 1390 1394 1397 1401 1404 1407 1409 1411 1413 1415 1417 1418 1419 1421 1422 1422 1423 1423 1423 1423 1423 1423 1422 1422 1421 1420 1419 1417 1416 1414 1412 1410
1336 1341 1346 1351 1355 1360 1365 1370 1374 1379 1383 1387 1391 1395 1398 1401 1403 1405 1407 1410 1411 1413 1415 1416 1417 1418 1419 1419 1420 1420 1420 1420 1420 1419 1419 1418 1417 1416 1415 1413 1412 1411 1409
1333 1338 1343 1348 1353 1358 1363 1367 1372 1376 1380 1384 1388 1391 1395 1398 1400 1402 1404 1406 1408 1410 1411 1413 1414 1415 1415 1416 1416 1417 1417 1417 1416 1416 1416 1415 1414 1413 1412 1411 1410 1409 1408
1331 1335 1341 1346 1351 1356 1361 1365 1369 1373 1377 1381 1385 1388 1392 1395 1397 1399 1401 1403 1405 1406 1408 1409 1410 1411 1412 1412 1413 1413 1413 1413 1413 1413 1413 1412 1411 1411 1410 1409 1408 1407 1406
1330 1334 1339 1344 1349 1354 1358 1363 1367 1371 1375 1379 1382 1386 1389 1392 1394 1396 1398 1400 1402 1403 1404 1405 1406 1407 1408 1409 1409 1410 1410 1410 1410 1410 1410 1409 1409 1408 1408 1407 1407 1406 1405
1328 1333 1337 1342 1346 1351 1356 1361 1365 1369 1372 1376 1380 1383 1386 1388 1391 1393 1395 1397 1399 1400 1401 1402 1403 1404 1405 1406 1406 1406 1407 1407 1407 1407 1407 1406 1406 1406 1406 1405 1405 1405 1404
1328 1332 1336 1341 1345 1350 1354 1358 1363 1367 1370 1374 1377 1380 1383 1385 1388 1390 1392 1394 1395 1397 1398 1399 1400 1401 1401 1402 1403 1403 1403 1403 1403 1404 1404 1404 1404 1404 1404 1404 1404 1404 1403